Weather History for KLSV - October, 2013

Change the Weather History Date:

Monday, October 7, 2013

  Actual Average Record
Temperature  
Mean Temperature 66 °F -  
Max Temperature 81 °F 85 °F 100 °F (1996)
Min Temperature 52 °F 58 °F 47 °F (2011)
Cooling Degree Days 2    
Growing Degree Days 16 (Base 50)    
Moisture  
Dew Point 19 °F    
Average Humidity 17    
Maximum Humidity 24    
Minimum Humidity 10    
Precipitation  
Precipitation 0.00 in - - ()
Sea Level Pressure  
Sea Level Pressure 29.93 in    
Wind  
Wind Speed 3 mph (ENE)    
Max Wind Speed 7 mph    
Max Gust Speed -    
Visibility 10 miles    
Events      
Averages and records for this station are not official NWS values.
T = Trace of Precipitation, MM = Missing Value Source: NWS Daily Summary

Daily Weather History Graph

Daily Weather History Graph

Search for Another Location

Airport or City:

Trip Planner

Search our weather history database for the weather conditions in past years. The results will help you decide how hot, cold, wet, or windy it might be!

Date:

Astronomy

Oct. 07, 2013 Rise Set
Actual Time 6:40 AM PDT 6:14 PM PDT
Civil Twilight 6:14 AM PDT 6:40 PM PDT
Nautical Twilight 5:45 AM PDT 7:10 PM PDT
Astronomical Twilight 5:15 AM PDT 7:39 PM PDT
Moon 9:29 AM PDT (10/7) 8:08 PM PDT (10/7)
Length of Visible Light 12h 25m
Length of Day
11h 34m
Waxing Crescent, 9% of the Moon is Illuminated
Oct 7
Waxing Crescent
Oct 11
First Quarter
Oct 18
Full
Oct 26
Last Quarter
Nov 3
New

Hourly Weather History & Observations

Time (PDT) Temp. Dew Point Humidity Pressure Visibility Wind Dir Wind Speed Gust Speed Precip Events Conditions
12:58 AM 55.8 °F 13.1 °F 19% 30.04 in 10.0 mi ENE 2.3 mph - N/A   Clear
1:58 AM 54.9 °F 14.7 °F 21% 30.03 in 10.0 mi NNE 2.3 mph - N/A   Clear
2:58 AM 55.4 °F 15.3 °F 21% 30.02 in 10.0 mi Calm Calm - N/A   Clear
3:58 AM 52.9 °F 14.7 °F 22% 30.00 in 10.0 mi ENE 2.3 mph - N/A   Clear
4:58 AM 53.1 °F 14.4 °F 22% 30.01 in 10.0 mi NNW 2.3 mph - N/A   Clear
5:58 AM 54.3 °F 15.1 °F 21% 30.00 in 10.0 mi Variable 1.2 mph - N/A   Clear
6:58 AM 53.8 °F 16.0 °F 23% 30.01 in 9.0 mi NNW 5.8 mph - N/A   Clear
7:58 AM 53.1 °F 16.3 °F 23% 30.04 in 10.0 mi Calm Calm - N/A   Clear
8:58 AM 58.8 °F 19.2 °F 22% 30.02 in 10.0 mi Calm Calm - N/A   Clear
9:58 AM 64.6 °F 18.0 °F 17% 30.03 in 10.0 mi Calm Calm - N/A   Clear
10:58 AM 67.3 °F 16.9 °F 14% 30.01 in 10.0 mi Calm Calm - N/A   Clear
11:58 AM 71.6 °F 20.1 °F 14% 29.99 in 10.0 mi South 2.3 mph - N/A   Partly Cloudy
12:58 PM 78.1 °F 23.9 °F 13% 29.94 in 10.0 mi NE 6.9 mph - N/A   Clear
1:58 PM 80.6 °F 21.9 °F 11% 29.90 in 10.0 mi ENE 5.8 mph - N/A   Clear
2:58 PM 81.1 °F 20.1 °F 10% 29.88 in 10.0 mi SSE 2.3 mph - N/A   Clear
3:58 PM 81.3 °F 20.1 °F 10% 29.86 in 10.0 mi SSE 3.5 mph - N/A   Clear
4:58 PM 81.0 °F 22.3 °F 11% 29.85 in 10.0 mi ESE 3.5 mph - N/A   Clear
5:58 PM 78.4 °F 23.0 °F 13% 29.83 in 10.0 mi ENE 5.8 mph - N/A   Clear
6:58 PM 78.8 °F 20.5 °F 11% 29.82 in 10.0 mi Variable 1.2 mph - N/A   Clear
7:58 PM 73.2 °F 21.4 °F 14% 29.83 in 10.0 mi NE 4.6 mph - N/A   Partly Cloudy
8:58 PM 71.4 °F 21.4 °F 15% 29.83 in 10.0 mi NNW 2.3 mph - N/A   Partly Cloudy
9:58 PM 71.6 °F 25.0 °F 17% 29.83 in 10.0 mi SSW 2.3 mph - N/A   Clear
10:58 PM 62.6 °F 23.4 °F 22% 29.83 in 10.0 mi East 6.9 mph - N/A   Clear
11:58 PM 58.5 °F 21.0 °F 24% 29.81 in 10.0 mi ENE 5.8 mph - N/A   Clear